Theta_e
324 324 323 324 324 324 323 324 323 323 323 323 323 323 323 323 323 323 324 324 324 324 324 324 325 325 325 326 327 327 325 313 310 308 304 304 312 333 333 337 335 334 329 304 301 302 299 299 301 299 302 300 301 302 302 300 296 295 292 287 290 287 289 290 291 290 292 292 293 291 291 295 294 294 298 296 297 294 296 300 300 305 307 309 311 311 313 323
323 323 323 323 323 323 322 322 322 322 323 323 322 323 323 322 322 323 323 324 323 324 324 324 324 325 325 326 326 326 318 310 306 305 306 316 330 335 337 337 334 332 320 304 301 297 299 297 298 298 298 298 301 301 301 300 298 291 287 290 292 287 292 293 290 291 292 296 291 291 289 294 294 294 296 296 294 292 298 297 296 303 304 309 313 313 318 324
323 322 322 322 323 323 322 322 322 322 322 322 322 322 321 322 322 322 322 322 323 323 323 324 324 324 324 325 324 324 311 306 305 302 307 327 335 335 336 335 337 333 308 302 300 300 301 299 297 299 295 296 296 300 297 299 299 292 294 292 287 291 291 290 289 291 291 291 291 291 290 292 293 294 294 297 293 293 295 295 296 298 300 306 309 314 321 324
322 322 322 322 321 322 321 321 322 321 321 321 321 321 321 321 321 321 321 322 322 322 322 323 323 324 323 324 325 318 305 300 298 301 301 326 335 336 335 333 334 328 306 301 298 297 297 297 295 298 296 294 293 295 298 297 299 295 291 287 293 289 293 293 288 289 288 291 291 291 290 293 292 291 294 292 295 294 293 292 299 299 298 303 309 317 322 323
322 321 322 322 321 321 321 321 321 321 320 321 320 320 320 319 319 320 320 321 321 321 322 322 323 324 324 323 324 314 300 292 294 298 307 334 336 335 335 336 329 308 303 298 299 298 300 298 294 293 296 294 295 294 292 294 295 292 293 291 290 288 292 292 288 289 288 288 291 288 294 294 292 293 290 293 294 293 294 298 295 297 298 307 313 318 322 323
321 321 321 321 321 321 320 320 320 320 320 320 319 319 319 319 319 319 320 320 320 321 322 322 322 322 323 322 315 304 296 285 298 307 326 333 335 335 336 333 326 303 301 299 297 297 301 300 300 297 291 295 294 294 294 292 294 297 291 289 289 288 293 291 289 289 288 290 291 291 293 292 293 293 287 292 296 293 293 294 292 294 298 313 316 319 321 323
320 320 320 320 321 321 320 320 320 320 320 320 319 318 318 318 318 319 319 319 320 321 322 322 322 322 322 321 308 302 294 295 303 311 328 332 335 335 333 326 317 300 299 299 298 299 297 297 296 291 290 290 292 292 293 293 291 291 293 290 292 289 292 289 290 287 286 290 290 291 291 293 291 294 290 290 294 293 292 290 290 290 307 315 317 319 321 323
320 320 319 320 320 321 320 320 320 320 319 319 318 318 318 318 318 319 319 319 320 321 322 322 322 322 322 309 304 301 299 297 303 308 329 333 326 323 313 304 302 301 300 299 296 295 297 298 297 290 291 294 293 293 294 294 293 293 292 290 291 289 291 288 286 286 287 288 289 290 293 292 289 292 290 292 294 293 292 299 301 305 310 312 317 318 321 322
319 319 319 319 320 320 320 319 319 319 318 318 318 318 318 319 318 318 319 319 320 320 321 322 322 322 322 302 297 295 295 301 306 311 315 317 312 308 305 306 301 300 297 298 296 297 300 295 292 294 293 290 292 293 290 294 292 291 292 289 290 291 289 289 289 287 288 290 288 292 290 290 289 290 292 294 292 290 291 301 304 308 310 311 315 318 320 321
319 319 319 319 319 320 319 319 319 318 318 318 318 318 318 318 318 318 318 319 319 320 321 322 322 321 307 299 295 290 298 309 311 308 308 309 306 304 303 303 300 300 301 298 295 296 298 294 296 294 293 291 292 292 289 293 291 289 289 289 291 291 290 290 291 289 288 292 288 292 290 291 291 291 291 292 291 287 298 299 301 306 309 310 312 315 318 319
319 319 319 319 320 319 319 319 318 318 318 317 318 317 318 318 318 317 318 318 319 320 321 321 322 316 305 296 294 290 305 310 310 304 305 306 304 304 303 301 299 301 299 299 297 295 297 296 294 294 297 293 291 289 290 293 290 290 290 289 290 287 290 289 290 289 290 294 288 291 291 291 291 291 291 292 290 290 294 297 300 301 305 309 309 311 314 316
319 319 319 319 319 318 318 318 318 318 317 317 317 317 317 317 317 317 318 318 319 320 321 320 319 304 296 294 291 294 302 310 306 303 303 304 304 305 304 300 300 300 301 299 301 301 296 296 296 293 293 294 292 290 292 291 292 289 292 292 289 285 291 290 291 290 290 293 290 289 292 290 291 290 291 288 288 290 293 296 298 300 300 302 306 308 311 314
318 318 319 318 318 317 317 317 317 317 317 317 317 317 316 316 317 317 317 318 320 320 321 320 315 306 299 295 296 299 306 308 305 304 305 305 304 302 302 301 301 297 301 300 300 302 296 296 297 297 294 292 289 291 292 290 287 290 289 286 288 285 287 290 288 289 291 292 289 289 287 284 284 289 290 288 287 289 292 292 292 295 297 299 300 306 310 311
318 318 318 317 317 317 317 317 317 317 317 316 316 316 316 316 317 317 317 318 320 321 320 318 311 300 295 291 300 308 307 308 304 306 306 306 304 305 302 301 300 299 301 299 298 297 296 294 298 295 292 292 292 296 292 287 287 291 288 285 284 288 286 288 289 288 292 291 287 290 287 283 283 286 289 287 287 293 293 290 289 288 290 292 295 300 307 310
318 317 317 317 317 317 316 316 316 316 316 316 315 316 316 316 316 317 318 318 319 321 320 316 305 299 293 293 301 307 320 305 305 306 305 304 302 302 301 302 301 300 300 300 300 297 297 298 298 294 293 292 294 292 286 283 282 281 286 285 282 284 285 285 289 287 291 293 289 289 285 287 288 287 285 287 287 290 292 291 290 288 289 289 291 294 297 304
317 317 316 316 316 315 316 316 315 315 315 315 315 316 317 317 317 318 318 318 319 320 314 309 303 293 290 290 304 317 304 302 303 305 305 304 304 303 301 300 301 300 300 299 298 298 297 300 294 291 292 293 290 288 284 287 283 281 285 282 285 283 281 284 291 286 288 290 291 289 286 283 290 290 288 285 288 289 290 289 289 288 288 289 291 292 294 295
317 316 316 315 314 315 315 315 315 315 315 315 317 317 316 317 317 317 318 318 315 315 310 305 303 298 291 297 305 301 298 301 304 305 305 304 303 302 300 300 299 298 299 299 297 299 296 294 291 291 288 289 285 288 286 282 280 287 281 282 280 283 282 284 286 289 288 290 291 288 289 286 288 288 287 287 289 290 290 292 291 291 291 291 291 291 292 293
317 316 315 314 314 314 314 315 314 315 315 316 315 316 313 317 319 319 315 312 310 309 307 305 301 295 292 298 295 297 299 301 304 302 303 302 300 300 298 297 297 298 298 298 297 296 294 291 290 290 286 286 288 286 285 282 286 283 284 282 284 281 280 281 285 288 288 289 289 287 288 290 292 292 293 292 289 289 291 292 292 292 291 292 291 291 291 292
317 316 315 315 314 314 314 314 314 314 315 316 316 318 319 319 312 307 304 301 295 294 293 295 292 285 285 291 298 301 303 303 302 303 303 303 302 299 300 297 298 299 294 291 293 294 292 291 291 288 286 284 287 288 287 284 284 285 286 283 280 283 283 283 282 283 288 289 289 286 288 289 290 291 293 293 288 290 291 290 290 291 291 291 291 292 292 293
317 316 315 315 314 313 313 314 314 314 316 313 313 312 303 298 298 298 302 298 291 291 292 295 292 292 295 296 299 303 303 304 302 300 304 303 301 300 298 296 296 293 293 291 293 293 290 288 286 286 288 289 288 286 286 284 285 283 281 280 281 280 283 282 284 288 285 288 288 286 285 285 289 291 293 294 291 290 290 291 292 292 292 292 292 292 293 293
317 316 315 315 314 313 313 314 314 315 315 311 312 299 291 293 289 288 294 296 294 294 294 295 294 295 296 299 300 299 301 298 299 301 303 306 300 301 295 295 293 289 288 287 292 292 289 286 286 287 287 288 285 283 285 284 283 285 282 282 281 284 284 286 288 286 285 288 285 281 285 289 290 291 292 292 289 291 292 292 292 292 292 292 292 292 293 294
316 316 315 314 313 313 313 313 315 315 315 311 309 296 296 294 295 295 294 289 294 296 294 295 297 299 300 300 301 299 297 296 299 300 304 303 300 298 293 291 289 290 289 289 290 290 288 286 288 287 285 284 283 283 283 285 283 281 284 281 283 283 282 285 285 285 285 288 285 283 287 290 292 292 293 291 291 291 290 290 291 291 292 292 293 292 292 292
316 315 315 314 313 313 313 314 315 315 310 308 305 301 299 302 302 299 296 292 292 296 295 296 296 297 298 300 300 300 296 293 294 298 301 301 297 294 293 291 288 288 289 290 289 285 285 286 287 285 286 288 283 283 286 284 282 282 282 285 282 282 285 286 286 285 285 287 288 286 285 289 287 284 283 285 286 287 286 286 287 289 290 291 292 291 291 291
316 315 314 313 313 313 313 314 316 312 308 308 305 300 303 303 303 300 293 290 290 295 297 296 297 296 296 298 302 295 294 293 296 297 300 299 296 295 294 288 289 289 290 287 289 288 284 286 286 285 286 289 286 284 287 286 285 283 282 281 282 285 283 283 286 284 282 285 283 284 285 285 280 282 283 286 282 284 286 284 286 286 287 288 288 287 288 290
314 314 313 313 313 313 314 316 309 307 308 307 303 304 302 303 303 300 291 288 288 293 298 298 299 299 300 304 300 297 293 295 297 299 299 299 293 294 293 290 290 288 287 285 286 286 285 286 284 286 285 284 286 285 284 286 283 286 282 283 283 283 284 284 284 284 279 286 282 281 282 279 279 282 281 282 284 287 285 286 289 289 290 289 293 294 294 290
314 314 313 313 313 314 316 307 306 307 305 302 302 302 302 301 301 298 291 284 282 287 294 292 301 296 305 300 298 295 296 293 295 298 302 299 299 295 293 291 289 289 285 287 288 284 284 286 284 286 286 285 285 285 285 286 283 284 287 284 282 284 284 283 283 283 281 281 284 280 281 276 279 283 283 281 281 284 286 286 289 289 290 291 292 293 294 294
314 314 314 314 314 316 307 301 308 307 300 300 302 302 301 302 300 297 289 280 281 289 288 295 295 295 301 297 298 293 287 287 299 298 298 301 298 298 294 289 288 288 287 287 287 286 286 286 284 284 285 285 284 284 285 286 285 285 283 282 284 285 286 283 283 284 282 281 285 280 278 279 279 284 282 280 282 282 285 289 290 290 290 291 292 292 293 294
314 315 315 315 315 315 308 306 305 303 299 301 301 302 302 301 296 293 286 275 275 293 288 289 294 299 300 297 295 290 290 294 293 295 297 299 298 294 290 288 290 289 288 286 283 286 286 286 284 285 283 283 285 283 285 285 285 284 282 283 284 284 282 282 283 282 281 283 283 279 282 281 276 283 282 281 290 282 286 289 290 289 290 290 292 293 293 293
315 315 314 315 316 316 309 307 305 302 300 302 302 303 301 298 292 289 281 275 287 286 299 291 303 300 295 296 293 290 292 292 289 292 296 297 297 295 289 287 287 287 286 287 285 287 288 287 287 288 287 284 283 283 282 286 286 285 282 283 282 281 281 282 281 283 280 277 275 280 279 276 277 279 281 281 285 283 286 289 288 287 288 290 291 292 292 293
315 315 314 315 315 312 308 305 303 303 305 304 302 299 296 293 290 284 278 274 290 283 290 293 293 291 292 291 290 289 292 290 291 293 294 294 295 293 292 291 291 290 288 287 286 286 288 290 289 287 287 285 285 284 283 284 285 285 284 287 284 281 280 278 278 278 277 273 275 277 277 279 276 281 281 287 287 282 284 286 287 288 291 291 290 290 292 292
315 316 315 316 310 312 307 302 306 305 305 304 299 296 293 289 282 278 274 282 290 288 289 289 288 293 291 289 288 288 289 287 293 292 291 293 292 291 291 292 290 286 285 283 284 284 287 288 289 287 286 284 286 286 286 283 284 285 284 281 285 282 278 278 273 274 273 267 269 276 277 278 276 277 284 282 282 280 286 288 287 290 289 290 290 290 291 291
315 315 316 314 314 313 304 301 307 306 305 302 298 294 290 281 282 278 276 290 284 285 286 285 286 290 292 289 287 287 289 290 289 291 290 287 288 289 289 287 288 280 282 282 282 284 286 287 286 288 288 288 286 288 286 287 283 285 284 286 280 272 269 275 267 275 272 269 279 276 276 278 279 280 283 283 282 282 282 287 290 288 290 289 290 290 289 291
313 315 316 314 313 310 307 307 308 306 304 300 294 289 285 280 273 280 279 283 281 287 285 289 286 289 290 289 288 288 289 288 290 289 288 288 288 288 287 288 287 285 281 282 283 283 284 283 287 289 289 289 289 287 284 285 284 284 286 281 277 271 267 267 261 261 266 272 275 279 277 277 278 282 284 287 287 284 283 282 284 286 288 289 289 288 288 292
310 316 313 311 311 310 310 308 306 305 303 297 292 286 280 275 275 291 281 280 284 284 285 284 287 288 291 288 288 290 287 287 289 288 289 287 288 286 288 287 286 285 284 282 284 282 278 280 285 288 287 289 289 288 290 287 286 286 283 286 282 272 268 267 265 272 271 270 273 274 274 274 277 283 285 282 284 283 282 282 282 283 283 284 283 284 287 292
309 311 311 311 310 310 308 306 306 305 300 295 288 284 279 277 276 280 280 281 281 283 284 288 289 288 286 284 288 290 287 286 288 289 287 287 285 285 287 289 286 283 286 285 283 282 283 280 284 286 286 287 290 289 286 287 286 283 280 283 281 280 276 269 265 264 264 269 270 275 275 276 283 285 284 282 282 284 282 283 283 286 285 284 289 292 292 292
308 305 309 308 309 309 308 307 305 303 298 291 286 278 280 279 274 280 282 285 284 284 284 287 286 286 282 284 286 288 290 287 288 287 286 287 286 287 288 288 288 288 288 286 284 280 281 281 284 284 286 287 289 287 288 288 286 285 284 280 282 281 279 271 267 271 270 268 271 268 277 280 281 283 282 282 285 284 283 284 283 286 287 288 290 292 292 292
302 306 304 305 307 308 308 307 305 302 296 290 284 281 279 279 281 282 290 287 285 289 287 283 283 283 283 283 285 287 288 290 286 285 284 286 286 286 287 288 289 288 289 288 284 284 283 281 284 285 287 288 286 286 286 284 287 284 280 283 282 281 281 277 272 265 263 269 270 271 275 278 275 280 281 285 285 286 284 284 285 286 287 291 291 291 292 292
300 303 304 302 305 309 309 307 305 301 294 288 283 288 283 284 286 287 287 286 287 286 284 284 284 286 284 284 283 286 286 287 286 286 284 287 284 289 287 288 289 292 291 288 287 286 285 280 284 284 285 288 286 288 289 288 286 284 282 285 285 279 277 277 273 267 267 266 264 268 273 273 277 280 280 283 284 284 284 284 286 288 289 291 291 292 292 292
300 300 297 302 308 309 308 307 304 298 292 286 283 283 286 284 287 286 288 289 288 285 285 283 283 284 285 284 285 286 288 284 286 284 284 284 283 286 291 290 288 289 290 287 285 284 284 279 281 285 285 287 287 287 285 285 286 285 286 284 284 281 277 275 276 271 273 266 264 269 269 276 278 279 279 286 284 285 285 285 288 290 290 290 290 291 291 292
296 295 293 304 307 309 309 306 301 296 289 284 285 280 284 286 288 288 287 288 286 283 284 284 283 283 284 285 287 286 286 286 286 285 285 285 286 288 288 292 289 288 288 287 286 287 286 282 276 284 285 286 285 285 285 286 283 282 282 282 285 280 282 281 277 275 275 266 265 263 268 272 277 279 281 284 282 284 288 289 289 289 290 289 290 290 291 290
296 293 293 303 305 307 308 304 296 290 288 284 283 284 285 287 287 288 288 289 288 289 285 284 285 284 283 283 284 287 285 284 286 285 284 285 287 283 288 291 290 288 286 288 288 286 283 283 279 282 282 283 283 284 284 286 287 286 285 284 286 281 279 277 277 276 267 272 267 264 273 273 279 279 283 283 281 285 287 292 290 289 289 289 289 290 290 291
294 288 292 304 305 307 303 295 292 291 284 283 284 286 286 295 287 288 288 289 289 288 288 285 284 283 283 286 286 286 286 284 285 286 285 285 288 287 288 289 290 291 291 287 287 286 286 282 283 278 282 285 286 286 283 283 285 284 285 285 285 283 281 274 273 275 271 274 271 268 270 275 281 279 280 281 280 285 286 289 290 289 288 288 288 290 290 290
291 289 300 302 304 304 300 291 293 290 285 285 289 287 288 287 287 288 288 289 289 288 286 285 285 285 285 285 285 285 287 285 286 286 285 286 286 287 287 288 290 291 292 286 287 285 290 281 278 279 279 281 284 284 284 283 286 287 285 282 284 284 283 280 274 276 279 272 272 269 267 274 278 280 280 281 279 279 282 285 289 288 287 287 288 290 289 289
291 293 296 302 304 303 295 288 287 289 288 289 287 288 288 288 287 287 287 288 287 288 287 286 287 288 286 284 285 286 288 284 285 286 285 285 287 287 286 287 292 291 292 288 291 291 285 283 284 274 275 278 279 283 283 284 286 283 282 282 282 280 278 275 273 270 272 275 276 276 273 269 282 281 281 279 281 283 285 284 284 288 287 288 288 289 287 288
292 294 294 297 301 300 290 291 289 288 289 288 286 286 287 286 288 288 288 289 288 287 287 287 288 287 286 285 286 286 287 286 282 286 285 284 287 287 287 287 289 291 290 291 295 293 286 283 284 278 277 275 273 273 279 282 283 282 279 281 283 285 279 280 278 276 274 273 278 273 274 278 280 283 283 282 282 284 284 284 283 284 288 289 289 289 288 288
287 283 290 293 296 296 294 295 293 290 289 289 286 285 285 286 288 289 289 289 289 289 288 289 287 287 285 286 285 285 286 284 285 283 285 284 285 286 287 285 287 289 291 294 292 292 282 283 285 285 283 281 283 283 284 284 282 282 282 283 283 284 283 283 279 275 279 276 276 280 278 282 282 284 282 284 284 286 287 286 287 287 286 285 285 286 286 288
287 284 285 284 290 290 287 293 290 292 288 292 286 287 285 284 287 289 292 288 290 290 288 289 288 287 286 285 283 284 285 286 285 284 284 284 284 286 286 286 287 289 293 291 291 287 281 284 284 285 285 286 282 281 282 287 284 284 282 282 283 283 282 282 281 282 282 277 274 281 279 280 281 281 283 285 285 284 285 286 287 287 288 288 288 287 288 288
283 284 288 289 286 283 284 285 290 290 291 292 288 290 286 286 287 285 289 290 291 291 288 288 289 287 288 287 286 282 284 284 285 283 284 283 285 286 287 288 288 290 289 288 288 287 284 284 284 284 284 282 278 281 283 285 285 285 285 283 282 283 281 283 283 285 282 282 281 282 281 282 282 284 286 287 288 288 289 288 288 289 287 287 287 289 288 287
285 284 285 289 285 284 286 289 290 290 290 291 289 290 287 287 286 288 287 288 289 290 288 284 286 286 286 287 286 283 284 282 281 283 281 282 283 284 284 287 288 286 287 286 287 283 286 280 282 283 283 282 281 281 283 284 282 282 284 284 285 283 283 285 286 286 284 284 285 282 283 285 285 286 287 289 290 289 287 286 285 287 288 287 287 286 287 287
282 283 283 285 285 284 286 289 289 290 287 291 286 288 289 288 286 288 289 288 285 287 289 286 285 286 286 286 285 285 285 285 284 284 283 285 282 283 285 283 285 286 286 286 286 286 287 280 285 281 279 279 280 281 282 282 282 281 281 283 284 284 285 285 286 286 284 284 282 279 280 282 284 285 288 290 287 285 286 286 288 288 286 286 286 286 286 287
285 285 287 284 282 284 286 288 288 287 286 289 286 288 289 289 288 290 290 292 288 287 288 287 286 287 287 287 287 288 288 288 287 289 289 289 287 287 287 285 288 286 286 285 285 287 286 279 281 280 277 274 279 280 279 280 280 281 279 281 282 282 282 284 283 284 283 283 284 280 281 284 285 285 286 287 286 286 288 288 288 288 286 285 286 286 287 287
286 287 286 284 279 284 284 285 287 287 284 288 289 289 289 289 290 292 289 292 293 293 293 291 290 291 287 288 288 290 291 290 291 290 292 290 290 289 289 289 289 288 285 285 285 284 283 281 278 275 276 271 276 277 277 278 278 275 279 282 283 284 285 285 285 284 287 288 283 279 283 289 286 290 288 286 287 287 287 289 288 287 286 286 287 287 287 287
Wind_Speed
20 18 18 18 17 16 16 15 15 14 14 14 13 13 12 12 11 11 11 13 9 10 10 9 9 8 8 7 7 6 7 3 2 1 3 7 5 3 3 2 11 10 7 3 6 7 2 2 4 2 3 4 3 2 1 3 2 2 2 5 2 2 2 6 6 9 1 2 3 3 6 6 1 0 0 1 3 2 1 2 4 1 5 2 1 3 4 4
19 19 19 18 18 16 16 15 15 15 15 13 13 13 12 12 11 10 10 10 9 9 8 8 9 8 7 6 6 8 6 2 2 1 12 2 5 6 6 8 9 11 6 5 10 5 9 2 2 3 4 3 2 1 0 0 1 4 2 2 3 5 1 7 4 6 3 1 3 3 1 3 3 6 1 1 1 3 0 3 2 2 3 1 2 1 5 9
20 19 19 17 17 16 15 15 15 15 14 13 13 12 11 11 9 8 7 9 8 8 8 8 8 7 6 6 6 9 3 1 0 6 8 11 5 5 6 7 9 9 6 4 5 10 11 12 8 6 3 5 6 2 3 1 1 1 4 1 2 8 1 5 4 4 2 4 5 5 2 2 1 4 1 1 1 1 4 4 2 3 7 6 1 4 9 9
21 19 18 17 17 16 16 15 15 14 13 13 12 11 11 9 9 9 8 8 7 7 7 7 7 7 5 6 8 5 2 3 2 4 2 8 12 9 7 7 7 6 2 1 4 5 5 9 6 6 3 6 2 2 1 1 0 1 3 3 2 5 2 1 6 3 4 1 5 4 1 2 2 3 3 4 2 4 7 8 7 10 10 8 4 8 10 11
20 19 19 17 16 15 14 15 15 14 13 13 11 12 11 7 7 8 8 7 7 7 6 7 6 6 5 6 7 3 3 2 5 1 4 3 12 10 7 6 6 5 3 6 8 5 7 8 5 4 4 1 2 2 1 1 1 4 0 0 2 2 2 1 3 1 2 1 7 4 7 4 2 2 4 8 5 6 6 5 10 7 3 10 11 11 10 11
18 18 16 17 17 15 15 15 15 14 14 13 12 11 10 8 7 7 8 7 7 7 7 7 7 6 6 7 2 2 5 6 0 1 2 3 8 9 7 4 5 6 8 4 4 5 10 2 6 4 2 3 1 5 1 0 1 2 1 0 2 1 1 0 1 2 4 3 6 6 3 3 3 2 1 6 8 4 4 2 5 6 6 4 6 11 11 12
17 16 16 15 16 16 15 15 15 15 14 14 12 11 10 9 9 8 7 7 6 7 8 7 7 7 8 6 2 4 3 5 1 2 1 4 6 8 7 4 7 7 5 5 5 5 3 8 6 5 5 5 0 2 1 1 2 3 2 1 0 1 2 2 1 1 1 7 5 2 1 1 3 4 1 3 8 5 1 2 6 6 4 8 11 13 16 17
16 15 15 15 14 15 15 15 16 14 14 13 12 11 10 9 9 8 7 6 6 6 7 7 7 6 8 1 3 1 1 5 1 3 2 5 6 7 8 4 3 4 5 8 7 5 6 9 9 3 5 8 4 6 1 4 3 2 1 1 1 1 1 2 2 3 1 1 0 2 4 0 3 1 1 7 7 3 6 5 1 4 5 5 9 14 12 13
15 15 14 14 14 15 15 15 15 14 14 13 12 11 11 10 9 8 7 6 6 6 7 8 7 6 6 1 5 5 5 2 2 1 3 7 4 5 4 3 1 4 4 3 1 8 7 2 3 4 5 3 2 7 1 6 3 1 1 4 2 1 2 0 3 4 2 2 1 4 1 2 3 2 3 9 4 4 5 2 2 5 5 7 9 12 12 14
16 15 14 13 13 14 14 14 14 15 14 13 12 11 11 10 9 7 6 6 6 6 7 7 8 7 4 3 3 4 3 1 0 1 5 7 5 6 5 3 5 6 6 1 4 5 2 6 7 5 13 5 3 3 1 1 2 4 5 3 5 1 0 4 3 2 2 2 1 2 1 0 1 1 5 1 1 7 1 2 2 3 8 8 6 7 8 11
16 14 14 13 13 13 13 12 14 15 14 12 12 12 11 9 8 6 5 5 6 7 7 7 7 5 2 3 7 7 1 3 0 2 6 7 7 6 4 5 4 3 5 1 4 3 1 9 4 5 1 4 4 1 1 1 5 5 9 5 7 3 5 2 3 4 1 1 3 2 1 0 2 1 6 2 4 3 2 1 1 2 3 5 5 6 5 6
16 15 15 15 13 13 14 13 13 13 13 12 12 11 9 8 7 6 5 5 7 7 7 6 7 4 3 4 5 4 3 2 2 2 4 5 4 4 5 6 3 4 6 4 2 1 4 9 6 2 4 4 3 2 2 1 3 3 1 3 3 4 1 8 2 3 2 0 2 1 1 1 1 5 4 4 5 5 1 0 2 3 4 4 4 5 6 7
15 16 16 15 14 13 15 14 13 14 13 12 11 9 8 8 7 7 6 5 7 7 8 7 3 2 4 2 5 5 1 2 4 6 3 3 5 3 3 2 3 3 1 5 4 2 4 8 6 10 1 6 5 2 4 6 1 2 8 4 3 3 2 2 1 3 1 0 3 2 3 6 7 11 9 4 7 3 1 1 3 4 5 5 5 6 7 5
15 15 15 15 15 15 16 13 11 13 14 12 11 9 7 7 7 6 5 6 6 8 7 6 3 3 3 2 2 2 1 3 4 4 2 2 5 1 3 4 4 3 2 7 3 2 4 2 11 10 2 6 3 1 6 3 5 6 1 5 1 2 3 2 1 6 4 2 3 0 2 7 7 2 2 3 3 0 3 4 5 4 5 5 5 6 8 8
16 15 15 15 14 14 15 14 14 13 12 12 10 8 8 8 7 6 5 5 8 8 9 5 2 5 2 1 2 4 6 3 3 1 1 3 4 3 2 4 8 6 4 6 4 1 3 7 9 5 2 2 5 5 3 4 5 3 6 2 2 4 3 6 1 5 3 1 4 4 1 8 8 9 6 3 4 1 3 5 6 6 6 6 6 7 8 10
17 15 16 15 14 13 13 12 15 14 13 13 11 9 8 7 5 5 6 5 8 7 5 3 2 4 5 1 1 3 1 3 3 1 0 3 2 4 4 6 2 3 4 4 2 3 5 8 10 3 4 3 8 8 5 4 2 5 2 1 3 1 3 4 0 2 3 0 4 2 5 4 3 2 2 3 4 4 3 6 6 6 7 7 7 6 7 8
18 17 15 15 14 13 14 13 13 14 13 12 12 10 9 6 6 6 5 5 3 3 1 3 2 1 3 0 2 1 2 1 1 1 0 1 2 7 6 4 3 5 5 3 5 5 7 8 3 3 5 6 3 7 8 1 1 2 3 2 3 3 2 2 4 1 5 1 3 4 1 6 4 7 8 6 2 2 5 7 8 7 7 7 6 6 8 9
19 19 18 16 16 15 14 14 15 14 13 11 8 9 5 7 8 9 4 2 1 2 5 2 2 2 4 1 2 3 0 2 2 3 2 1 4 5 4 3 1 6 5 5 5 3 3 3 2 5 2 2 2 5 8 9 11 8 3 3 0 1 2 3 2 1 2 2 1 1 2 11 11 9 11 6 1 2 7 7 7 7 8 7 6 7 9 9
20 19 18 18 16 16 16 15 16 15 15 13 10 9 9 8 3 0 2 1 2 3 2 3 5 5 4 7 0 3 0 2 3 2 1 3 1 3 4 4 5 8 3 4 1 3 3 5 5 6 6 3 7 8 9 5 6 9 10 6 5 5 4 2 4 3 1 1 2 2 6 7 9 10 12 4 1 2 7 5 6 8 8 8 8 8 8 8
21 19 18 18 16 16 16 15 16 16 17 11 8 6 3 4 2 2 1 1 1 2 0 7 3 2 2 4 5 0 1 0 4 4 0 2 3 4 5 2 3 6 6 6 1 2 1 7 7 9 10 10 6 4 4 3 7 7 6 6 5 5 1 2 2 0 1 1 4 3 5 6 11 11 12 12 1 4 7 10 8 6 7 7 7 8 8 8
22 21 19 18 17 16 17 16 15 15 15 5 8 5 5 9 11 5 4 1 1 1 2 1 2 2 1 2 0 5 6 2 2 1 1 1 1 8 1 2 2 3 2 2 6 1 4 6 7 5 6 7 8 9 10 10 5 7 6 5 1 1 2 1 1 2 2 2 1 1 3 9 11 11 12 8 2 10 9 8 8 9 7 7 7 9 7 9
20 21 20 18 17 17 16 17 15 14 10 3 3 2 1 2 1 1 5 3 0 1 4 2 1 3 1 2 1 2 4 4 3 1 1 1 2 6 2 4 4 8 0 3 5 3 3 8 7 5 6 10 7 6 5 7 7 4 5 4 3 3 2 2 1 2 3 1 4 1 4 9 11 10 10 5 6 6 3 3 6 6 10 8 7 7 8 7
20 20 19 18 17 17 17 16 14 12 4 4 4 1 2 1 0 3 3 5 3 1 2 3 3 2 2 2 1 0 2 3 5 2 1 1 2 1 6 6 5 4 1 4 10 6 3 4 6 5 8 11 4 5 11 9 7 7 6 4 5 2 3 1 3 1 4 2 1 1 4 10 7 8 8 5 3 6 5 7 8 5 8 9 9 6 8 11
19 19 19 18 18 18 18 15 12 7 2 3 2 6 2 1 1 0 2 3 3 1 1 0 2 2 3 4 3 3 3 1 4 6 3 2 6 2 6 4 6 4 8 4 9 10 6 1 1 8 4 10 7 3 8 6 3 1 4 4 5 2 2 2 2 0 1 1 1 0 2 7 4 4 4 1 5 4 5 7 3 2 5 7 8 7 6 9
17 17 18 19 18 18 17 15 8 5 4 1 4 4 3 2 1 1 5 2 4 1 1 1 3 0 2 1 1 1 1 2 1 0 2 4 3 3 3 2 5 4 4 3 6 6 0 1 3 7 4 5 7 3 4 9 4 1 4 6 5 5 7 0 1 2 4 1 6 3 3 2 4 7 7 7 8 9 4 6 6 6 5 4 5 6 6 4
18 18 18 19 19 18 18 8 5 5 9 6 5 2 3 2 1 1 6 3 3 1 1 3 0 2 1 0 2 2 4 2 1 1 1 1 2 3 1 2 1 7 3 6 7 3 2 0 2 6 7 5 6 6 5 5 7 5 4 5 4 8 8 7 4 3 1 1 3 2 2 3 7 6 3 4 8 7 6 4 5 6 7 6 6 6 6 6
19 19 19 20 21 21 11 5 6 10 6 5 5 3 3 1 2 2 4 5 1 3 5 1 1 1 1 0 1 4 7 4 0 1 1 3 1 1 6 3 3 3 2 2 3 2 2 1 4 4 6 6 5 4 4 8 9 5 1 6 8 9 8 5 6 2 1 1 1 6 4 1 5 8 4 3 3 4 5 6 6 7 7 7 7 7 6 7
19 20 19 21 21 16 1 6 11 8 4 1 2 5 4 3 2 1 6 5 2 2 3 2 0 2 1 0 5 2 1 2 4 2 0 3 0 3 4 6 6 7 1 3 9 1 3 4 3 6 2 5 8 3 4 5 6 1 2 4 5 6 5 6 6 5 1 0 4 4 5 0 4 8 5 4 1 4 3 4 5 6 6 7 7 8 7 7
17 19 19 18 20 12 7 8 9 9 2 2 2 4 4 4 3 5 5 4 0 3 4 4 3 1 2 1 5 2 1 4 2 1 3 1 4 2 2 3 6 7 4 2 6 1 2 4 6 5 7 6 2 1 1 4 5 1 6 7 8 8 7 5 4 5 1 3 4 2 4 2 7 6 6 2 0 1 1 1 3 4 4 5 7 7 7 6
17 16 17 16 14 6 3 1 6 1 3 3 4 3 3 3 3 2 3 6 4 2 1 1 2 4 2 6 1 4 2 2 1 0 3 2 3 6 3 3 5 5 3 6 8 3 1 3 4 3 3 2 5 3 1 2 3 10 4 9 7 9 5 4 7 3 3 1 5 2 4 1 3 4 5 1 2 5 4 1 1 3 5 6 4 4 5 6
16 16 14 16 7 4 6 6 5 4 4 3 4 4 5 7 4 4 6 5 4 1 1 1 2 2 8 10 5 1 4 1 1 2 2 1 4 4 3 4 4 6 5 5 4 4 1 1 1 0 2 4 3 5 6 3 5 6 4 5 7 5 6 5 5 5 2 4 3 2 2 2 5 4 3 8 4 4 7 5 4 5 4 4 4 5 5 4
19 17 16 12 3 5 7 6 5 5 5 5 4 5 6 5 2 8 4 1 4 5 5 5 1 5 11 2 5 4 6 2 0 2 7 4 6 8 6 8 6 6 1 4 3 1 3 2 1 3 3 7 4 10 4 1 4 4 7 7 8 1 4 1 3 1 4 5 1 3 1 1 6 9 2 4 4 5 7 4 3 1 3 4 4 5 5 3
10 18 18 7 4 2 1 1 6 5 6 3 4 3 5 6 8 6 3 5 2 5 6 4 6 6 7 6 5 2 0 7 2 1 3 0 6 2 0 2 5 6 8 5 5 3 2 1 1 1 2 4 4 12 3 1 1 3 9 7 6 3 2 2 2 1 5 5 4 1 1 2 4 10 10 10 8 5 6 7 6 2 1 2 3 4 4 4
2 19 10 3 4 1 2 3 5 6 6 3 6 6 6 5 8 4 5 3 1 3 6 3 5 5 12 9 7 7 4 1 5 2 2 5 6 6 4 1 4 2 7 2 7 6 5 3 5 6 2 2 1 2 10 7 9 6 1 6 8 8 5 4 4 4 5 5 2 3 1 6 5 4 0 6 5 2 3 5 3 4 5 5 6 5 2 3
4 8 8 5 4 2 2 1 3 4 6 6 5 7 11 12 3 10 6 4 2 1 3 2 11 9 2 3 0 1 2 2 1 6 2 7 8 6 11 9 4 5 2 10 3 2 6 3 2 3 2 0 7 1 3 6 6 0 3 5 5 6 5 2 3 3 2 1 1 1 5 3 3 0 4 3 5 1 2 5 2 3 1 1 1 3 3 4
2 2 3 3 4 1 2 0 1 2 6 7 8 5 12 6 4 3 6 5 2 5 5 7 4 6 2 3 2 4 2 4 4 3 2 5 2 8 3 2 8 8 9 9 5 5 3 3 2 6 3 2 0 0 1 1 8 4 4 4 4 2 11 7 2 1 1 4 4 2 7 6 8 5 1 1 2 2 2 2 3 4 4 4 5 3 3 3
4 1 5 1 3 2 2 1 2 4 4 6 9 12 3 1 1 4 4 8 7 15 8 11 5 7 8 6 6 7 4 5 3 4 5 2 3 5 4 5 3 3 4 9 1 2 9 3 3 3 1 1 0 0 2 6 1 9 2 7 2 2 6 5 3 3 4 3 6 2 6 4 3 5 3 2 5 1 2 4 6 4 5 7 5 3 2 3
2 2 4 3 3 3 2 0 2 4 4 5 11 4 1 3 1 0 0 6 5 1 7 7 1 6 7 8 6 8 4 7 7 2 4 6 4 6 7 3 5 10 6 2 4 3 7 4 1 1 1 4 2 0 5 2 3 3 3 4 6 2 2 2 5 1 1 1 4 2 2 5 5 6 0 4 7 5 3 4 6 7 6 7 5 2 0 1
1 2 4 1 3 3 1 1 2 6 6 6 9 4 1 1 0 1 2 1 3 5 9 4 6 3 4 8 5 6 10 9 7 7 7 4 5 4 14 7 3 1 6 5 3 1 2 5 1 1 2 1 2 2 9 3 4 2 2 3 1 3 2 4 6 3 5 3 2 5 3 5 8 7 10 9 11 9 7 6 8 9 9 7 5 4 4 3
3 2 2 1 4 3 2 1 5 4 4 13 8 2 1 2 1 1 1 3 2 3 4 5 1 7 3 3 8 9 6 5 12 8 5 3 7 1 5 3 7 4 6 1 2 2 3 1 5 1 2 2 3 3 8 9 10 2 2 2 1 2 2 5 2 3 4 5 5 2 3 5 7 7 7 9 7 9 13 12 9 8 9 7 6 6 4 4
1 2 0 2 6 5 1 5 5 8 9 2 3 2 0 1 2 0 2 2 2 3 1 4 7 7 7 5 2 2 4 5 6 6 4 3 9 5 6 8 8 9 3 3 4 2 3 1 7 2 3 5 4 1 2 5 3 6 9 11 11 10 5 5 6 2 2 3 4 5 8 6 9 2 7 6 7 10 10 16 12 10 8 7 5 4 3 5
2 4 1 4 6 3 5 9 2 1 4 5 6 3 2 2 2 1 2 1 4 2 2 5 2 4 3 5 4 7 6 4 4 5 4 8 7 3 2 7 6 13 12 9 9 2 4 3 8 5 6 4 1 1 1 2 1 1 1 5 5 2 6 4 5 5 3 0 5 3 0 8 5 3 4 5 4 8 9 6 12 8 8 6 5 2 1 1
3 1 1 4 3 3 4 2 2 2 2 2 1 3 2 2 3 3 3 1 1 1 2 2 4 4 1 3 2 4 10 5 10 11 4 4 0 4 3 8 11 10 7 1 4 3 5 5 5 2 1 3 2 1 1 1 0 1 3 2 5 8 5 6 3 7 8 3 1 1 1 7 4 2 4 5 4 3 1 2 8 9 6 6 4 2 1 4
1 3 3 2 3 1 3 9 10 8 3 1 2 2 2 2 2 2 0 0 2 1 2 2 1 1 3 1 4 9 7 4 3 4 1 2 3 2 2 8 13 8 10 9 11 9 5 3 9 3 2 2 3 2 1 2 1 4 3 4 2 4 5 2 5 1 3 8 8 8 7 5 2 5 2 1 1 4 5 3 4 8 6 5 4 1 1 2
3 1 2 4 4 2 3 1 2 5 5 6 4 5 2 2 1 2 3 2 1 2 2 0 1 3 1 1 3 2 5 3 3 4 2 2 1 1 6 4 6 5 2 3 4 8 2 4 8 8 9 8 6 5 10 12 12 3 0 2 5 9 8 5 3 1 3 3 8 4 7 7 7 2 2 1 5 4 2 3 3 4 6 7 4 2 3 5
1 3 1 3 5 1 4 2 2 4 7 8 5 2 2 3 1 2 3 2 1 2 2 3 1 3 2 3 3 3 7 2 2 3 6 2 1 2 2 5 3 1 3 3 7 9 3 1 6 8 12 13 14 8 1 9 6 7 5 9 6 5 5 4 5 5 10 4 6 7 4 2 3 1 1 6 7 9 8 5 8 7 5 4 3 2 3 5
1 2 3 3 3 3 1 0 0 1 7 6 6 3 4 3 2 1 0 1 2 2 1 1 2 4 1 4 4 4 3 3 2 4 3 6 0 0 3 4 4 4 2 4 6 6 3 4 7 7 10 9 3 3 5 7 8 6 7 8 8 9 8 8 9 12 7 9 7 10 7 6 9 3 6 9 8 6 5 7 7 6 6 7 3 1 3 4
2 1 2 1 2 4 4 3 5 2 1 2 3 4 5 5 3 4 2 1 0 0 3 1 1 0 7 9 6 4 4 3 2 3 1 0 4 1 2 3 3 2 1 2 1 3 6 8 5 5 9 3 1 4 7 6 8 11 13 11 11 13 10 13 13 11 10 10 17 5 10 9 6 9 12 14 14 13 14 14 11 7 2 2 4 4 4 4
1 1 1 1 2 1 1 4 9 4 2 4 2 5 7 7 6 3 3 1 1 1 1 3 4 3 3 1 3 4 7 6 4 1 3 3 3 3 2 2 1 2 2 2 2 1 4 5 5 5 8 4 1 2 2 7 3 3 9 12 15 15 16 18 17 14 14 12 9 7 12 16 8 11 12 14 13 8 5 3 1 4 4 4 3 4 5 5
0 1 1 2 4 4 0 4 8 8 6 4 4 4 6 9 9 2 0 4 3 2 0 1 3 3 3 3 2 4 5 4 7 8 4 7 0 1 4 4 4 1 1 4 4 2 4 4 7 4 5 4 1 1 1 1 3 6 5 7 10 15 17 19 17 15 9 10 0 5 5 10 7 6 9 9 4 5 2 5 8 5 3 5 7 6 6 5
1 0 0 5 4 1 1 3 7 8 6 5 4 3 3 6 9 5 1 0 2 5 4 6 5 4 2 3 2 1 3 2 6 9 12 10 11 8 7 4 6 7 4 3 1 1 3 2 2 3 6 3 1 2 2 3 2 0 2 6 10 13 13 13 13 6 8 11 10 3 6 13 6 4 6 4 4 8 9 9 6 5 6 6 8 8 7 7
1 0 1 2 3 1 3 1 3 5 6 6 4 3 3 5 2 4 2 1 0 2 8 10 8 6 1 3 3 4 3 1 1 2 8 1 3 3 0 3 9 10 7 6 0 6 4 6 5 3 6 4 3 1 5 5 2 4 9 14 21 16 13 6 5 3 13 16 10 8 16 13 6 12 9 3 6 8 7 8 8 5 5 8 10 11 10 8
Wind_Direction
171 168 180 172 171 170 173 161 172 171 174 178 177 175 174 180 180 183 192 183 179 178 177 172 166 167 167 164 159 165 153 133 95 138 173 235 198 187 129 101 145 152 184 130 96 107 72 94 115 343 65 60 315 76 290 53 34 55 73 116 59 203 121 197 170 191 194 116 196 178 211 126 180 90 339 110 37 41 312 293 302 294 264 229 240 312 288 165
167 168 170 163 161 166 168 168 169 171 173 172 174 175 171 175 178 176 170 177 182 179 175 166 164 156 160 156 146 167 141 98 124 184 219 177 171 145 143 152 144 157 154 118 150 155 129 145 148 71 88 58 319 38 1 335 75 90 129 87 195 190 227 155 198 186 121 290 158 178 238 157 190 142 225 109 281 8 247 280 356 315 292 315 320 274 160 159
168 171 169 163 154 166 168 169 167 169 169 170 173 169 172 173 170 167 161 168 175 177 172 167 155 155 149 156 166 173 115 65 323 251 248 196 136 149 172 155 160 160 188 161 198 159 160 171 169 101 20 101 6 142 51 328 59 212 113 154 255 206 224 211 178 192 223 130 123 137 206 132 178 140 176 181 215 31 221 225 304 268 244 211 278 132 161 162
168 166 168 160 163 168 170 169 168 169 164 172 169 169 172 168 162 171 171 173 173 174 171 162 151 145 150 162 193 181 123 68 252 246 279 202 155 167 185 168 166 162 116 30 165 127 100 93 94 99 76 73 313 35 101 312 69 216 80 157 225 183 112 233 188 237 211 138 149 136 137 146 215 188 141 167 103 262 260 229 192 211 225 202 203 166 163 164
166 168 165 158 159 167 172 173 169 167 168 170 169 178 150 136 158 181 177 174 176 174 169 159 145 140 154 177 206 197 113 66 257 232 290 137 144 159 175 169 150 133 151 140 89 85 121 129 102 44 90 111 12 33 12 338 105 97 68 203 158 164 71 225 203 225 161 163 114 126 124 206 115 91 116 149 180 232 212 255 221 237 219 166 169 176 168 169
162 169 166 160 159 165 173 175 172 171 171 169 171 168 169 159 166 183 179 178 177 176 168 152 144 145 162 178 195 169 108 203 270 315 322 131 147 147 155 161 144 131 127 105 119 156 119 74 98 103 37 89 141 134 234 169 334 176 321 319 193 217 111 300 287 234 140 133 142 149 195 89 151 123 214 166 205 224 233 250 278 245 200 183 149 155 171 174
162 166 166 166 163 164 175 177 173 172 169 167 167 172 171 169 177 178 176 179 174 174 161 149 142 154 170 150 225 95 159 274 1 280 336 134 141 136 129 112 126 130 125 102 134 140 147 120 96 147 97 72 263 127 207 142 19 103 163 124 173 205 43 289 280 123 133 135 178 205 47 122 139 179 160 213 237 210 193 267 257 266 190 154 151 176 177 184
158 165 165 164 164 163 175 174 172 169 170 168 166 171 172 171 169 168 168 174 177 166 157 147 151 166 167 191 116 55 57 256 224 299 134 98 103 107 104 73 131 128 131 159 149 136 142 132 141 158 74 143 200 128 207 97 18 100 99 195 149 98 313 345 69 83 125 77 334 110 125 307 198 172 86 249 246 275 302 348 65 117 138 157 166 180 190 194
157 162 162 161 160 164 171 174 173 170 173 171 165 169 168 162 158 159 161 169 170 166 159 151 150 166 185 101 114 108 240 241 183 181 91 109 125 109 123 143 158 158 149 99 242 165 129 248 109 185 201 119 165 101 235 136 298 147 146 124 116 73 330 14 66 47 39 115 43 101 33 331 243 276 237 251 295 291 300 45 57 125 147 179 190 189 186 194
157 159 156 158 159 163 169 174 174 172 172 170 167 165 165 155 154 151 154 158 169 177 164 150 151 173 138 106 60 160 259 123 335 74 134 126 122 112 50 144 125 132 128 186 102 140 147 197 159 175 122 67 114 110 203 111 211 131 106 101 102 331 345 17 129 5 331 94 305 152 233 118 304 25 277 327 286 323 62 30 354 174 181 199 205 213 210 196
157 153 149 152 159 161 168 168 173 171 171 169 168 166 161 157 149 142 148 165 180 178 158 151 175 183 106 98 127 207 177 104 171 135 141 139 126 145 179 162 156 108 112 169 182 189 200 150 159 115 40 199 109 33 98 162 124 84 135 111 43 352 70 13 66 21 324 34 25 139 137 247 322 92 230 216 348 319 111 1 348 317 255 219 232 234 240 238
156 152 148 150 150 157 168 168 170 171 167 169 165 163 159 154 150 150 157 181 182 169 152 147 170 149 91 74 142 206 186 200 110 125 133 136 137 219 192 169 146 152 144 157 214 229 172 153 128 83 173 142 84 125 74 130 71 154 194 114 312 12 51 19 48 324 7 147 18 252 94 308 175 220 256 258 322 19 105 217 310 276 281 292 273 261 241 228
152 150 147 150 149 158 168 162 168 172 165 163 161 161 147 157 159 155 167 185 181 156 145 150 148 104 98 104 238 226 181 159 113 111 74 88 108 52 97 124 121 134 161 139 177 189 155 141 110 80 29 96 148 128 166 77 3 111 41 117 44 11 354 2 318 340 29 278 348 293 271 272 267 255 269 318 344 358 43 299 280 265 271 285 281 255 259 250
146 141 138 147 147 151 162 156 152 170 164 159 162 141 144 161 157 155 176 191 180 151 141 149 125 85 94 220 269 249 167 124 123 97 111 209 92 71 53 42 74 65 33 97 78 145 104 116 94 116 125 98 137 232 70 358 15 125 235 57 107 110 249 329 46 316 135 329 1 97 206 282 277 280 330 337 353 266 291 292 294 283 276 253 251 257 254 253
144 140 138 143 148 156 161 165 169 168 160 159 157 153 161 161 151 163 184 195 187 157 149 111 34 86 80 268 287 299 139 120 125 199 190 154 126 77 57 53 55 50 87 109 131 101 121 97 85 51 82 286 109 85 41 44 15 26 84 271 334 167 274 303 49 22 170 15 38 95 310 248 264 271 288 321 23 100 255 288 289 285 270 256 247 244 249 252
146 143 141 145 150 157 166 172 173 170 165 160 158 142 121 134 149 175 192 198 161 151 201 74 18 110 98 326 196 104 77 133 198 222 282 167 151 135 164 119 124 36 64 39 62 95 39 78 73 170 117 36 67 101 78 72 348 2 85 229 193 107 251 339 32 50 346 277 359 157 219 326 320 264 278 314 57 60 11 302 295 292 274 266 248 239 246 264
148 148 148 149 151 160 172 175 166 169 163 162 139 132 132 142 169 186 187 159 143 191 114 141 123 90 126 274 97 166 214 226 326 55 1 21 143 144 111 76 62 78 67 71 23 51 359 61 281 46 24 120 154 106 94 25 333 240 24 143 211 169 226 250 308 346 356 88 215 9 195 232 239 282 290 298 283 303 301 280 280 279 276 265 269 255 252 244
152 151 152 152 155 166 170 167 167 169 163 157 131 140 144 153 143 126 117 90 242 141 94 101 115 89 262 66 187 220 209 140 130 164 51 316 117 103 97 103 76 105 91 83 359 74 337 65 26 164 31 41 125 96 137 197 185 187 145 80 274 294 220 224 124 252 24 29 202 343 274 273 273 287 287 279 259 201 252 255 270 280 277 272 252 253 248 251
156 152 153 155 156 164 165 167 170 167 161 157 139 138 133 126 78 112 127 238 142 70 98 195 138 152 203 208 171 44 248 168 107 68 150 124 29 106 69 83 100 117 103 84 274 105 350 74 43 88 144 141 191 177 165 200 139 168 171 171 147 159 210 199 238 277 56 301 274 241 233 277 292 298 293 291 134 197 264 276 271 264 265 270 262 257 249 247
157 156 153 155 157 163 166 169 171 167 163 156 149 130 88 90 82 126 300 15 79 165 183 158 125 144 70 10 132 196 327 22 120 342 62 293 124 76 44 72 33 58 112 154 121 82 116 132 166 181 184 185 176 149 153 153 131 108 80 97 170 152 272 274 274 270 162 114 241 249 282 278 281 273 275 283 234 288 278 273 271 268 266 267 268 257 262 258
157 157 156 155 158 163 166 171 173 170 166 161 163 145 167 178 134 183 168 232 181 356 46 116 131 133 116 146 275 147 125 359 55 80 217 109 225 119 231 43 81 78 9 173 135 240 66 135 221 208 188 167 144 125 106 73 56 130 128 131 175 206 135 228 144 356 315 136 291 45 318 276 264 271 268 279 309 270 254 267 269 273 266 265 263 274 265 263
159 157 159 156 157 161 166 173 180 169 143 116 141 151 261 208 199 221 124 105 216 105 68 104 162 61 353 163 268 147 62 90 75 16 324 124 179 134 265 102 135 152 203 120 62 93 142 187 223 205 128 97 90 85 71 117 112 54 137 151 108 245 240 304 306 337 337 102 268 26 340 283 277 273 275 267 263 257 261 236 264 280 287 283 281 280 284 294
157 158 157 160 160 163 167 172 181 158 120 151 173 170 221 220 194 235 120 96 75 318 73 98 117 78 27 315 252 212 100 129 167 254 240 26 120 141 140 115 113 126 72 161 151 128 137 273 237 150 147 110 58 84 98 78 67 112 104 110 199 236 129 236 279 352 1 85 304 295 319 282 298 296 283 285 254 289 289 283 272 246 261 271 273 281 290 288
155 157 161 162 161 162 166 172 153 128 185 171 174 206 216 102 121 40 62 134 136 348 52 149 132 150 163 145 209 104 108 210 123 188 327 115 142 204 101 129 120 119 177 169 150 158 181 259 350 137 145 130 123 112 116 110 111 351 123 128 131 163 224 146 180 298 308 43 58 2 293 308 344 354 334 317 324 315 326 334 353 323 243 262 284 289 251 261
156 156 162 160 162 158 168 145 144 173 114 71 281 249 229 199 123 119 92 60 27 37 216 42 116 240 187 64 9 139 218 93 54 258 287 120 140 91 141 167 110 180 135 148 94 102 274 337 152 114 101 95 114 127 174 127 74 60 228 170 192 168 134 262 25 100 20 328 14 43 10 328 304 304 244 291 347 351 334 26 8 340 347 349 358 339 329 294
157 159 161 161 158 161 147 139 183 125 144 197 215 242 159 141 120 129 95 74 145 246 32 164 177 171 135 150 22 146 123 125 276 240 67 251 198 133 121 56 85 186 156 139 152 164 185 9 120 156 139 128 138 165 213 142 158 122 233 165 144 140 123 124 119 75 53 134 347 9 129 263 330 312 287 332 333 323 327 24 356 0 358 3 358 348 344 350
162 163 161 160 164 155 149 193 135 127 136 253 227 163 175 162 154 119 63 6 115 183 147 285 54 148 58 262 140 120 138 237 37 33 39 342 90 325 130 187 41 36 155 168 60 233 93 88 73 82 109 125 133 191 221 145 125 193 243 126 117 113 126 153 108 101 169 247 270 45 80 182 309 291 270 297 315 348 355 358 5 6 0 0 356 353 352 348
166 164 162 168 167 166 60 117 145 174 200 225 102 146 142 182 113 43 84 111 239 140 123 245 239 335 90 326 54 122 208 173 105 223 59 290 146 12 88 195 148 154 163 104 183 299 118 159 160 139 79 126 179 210 186 144 130 216 210 137 125 129 133 116 91 103 102 28 273 348 346 67 260 267 310 355 67 5 341 349 5 352 355 358 0 2 355 347
163 165 170 167 164 167 126 149 166 183 213 138 174 131 132 129 89 115 122 134 234 80 277 91 283 57 8 1 45 23 50 19 125 239 313 340 35 164 81 186 121 112 40 132 160 216 335 162 203 148 134 182 232 327 124 132 91 249 132 93 96 85 71 90 101 86 349 74 266 225 11 192 279 274 331 331 179 265 222 16 338 336 327 346 6 5 6 3
173 170 170 161 165 141 119 75 184 227 117 143 164 141 89 86 119 75 115 223 126 182 105 151 130 198 118 136 33 3 93 340 87 323 29 134 339 39 24 149 113 87 51 29 77 179 242 327 192 93 174 169 129 48 97 349 122 131 125 85 47 41 34 36 61 84 64 5 253 269 308 153 308 270 227 145 203 189 188 340 331 351 26 25 21 15 8 11
176 173 170 172 177 156 122 169 233 177 161 150 148 117 93 47 133 100 180 215 71 65 37 123 162 64 137 147 156 321 80 339 50 127 95 343 23 47 146 55 47 57 59 25 42 333 21 0 46 316 73 116 105 77 29 74 96 121 107 131 84 6 9 31 349 31 112 266 260 272 292 272 174 294 325 236 290 212 147 133 68 45 25 20 10 6 2 4
185 178 173 170 195 147 156 195 179 151 158 164 131 121 121 113 6 188 193 32 148 192 163 175 286 150 175 114 75 141 133 41 331 145 145 171 144 144 203 145 163 84 164 167 182 2 52 108 224 15 216 121 131 89 358 350 347 89 99 93 111 228 35 268 10 253 197 196 250 331 169 15 241 227 242 307 258 231 216 162 102 46 26 12 8 0 345 343
166 178 172 164 123 124 285 157 132 152 129 131 87 75 104 123 190 200 106 187 258 139 216 118 167 167 149 122 156 145 255 141 232 90 108 33 126 227 308 171 177 136 182 203 107 98 270 274 41 337 54 230 150 123 144 148 301 125 138 144 112 113 70 215 276 280 315 291 269 319 274 262 252 285 238 231 237 204 210 226 227 212 242 307 322 330 339 355
61 173 160 144 109 71 128 152 149 141 125 88 114 79 55 149 219 83 141 206 159 353 81 113 98 105 154 167 189 173 119 314 152 173 108 155 134 170 231 306 136 65 78 146 144 191 123 286 247 150 199 159 156 160 171 149 156 206 24 147 173 142 156 201 191 184 210 194 279 274 79 233 130 233 205 213 239 257 255 251 255 252 250 262 281 282 295 19
69 133 123 116 100 53 120 238 162 158 103 111 108 160 162 205 134 159 168 182 248 56 55 149 126 137 158 31 59 246 134 125 179 123 156 143 189 185 183 196 226 116 140 127 255 100 199 193 285 307 260 287 166 260 112 103 45 302 163 77 97 214 130 125 207 138 160 143 34 236 215 193 164 295 279 288 288 283 242 261 268 278 279 278 92 86 75 48
129 12 104 98 101 11 46 316 135 121 129 121 145 172 203 186 184 185 183 142 127 118 120 66 75 122 114 77 323 194 332 110 213 117 205 195 217 190 200 177 181 194 160 167 172 163 35 231 349 308 42 73 138 266 341 133 171 218 97 197 204 105 99 105 54 25 97 46 252 158 317 292 298 310 318 328 119 83 84 144 164 197 136 118 117 102 73 57
81 128 81 343 64 332 340 56 158 112 103 159 154 198 193 13 186 151 129 148 178 134 137 135 236 137 170 191 173 190 204 79 171 128 209 139 290 197 197 225 152 176 236 127 211 216 150 190 357 57 95 357 141 162 115 37 142 98 181 218 170 138 125 126 162 346 58 163 262 89 220 287 48 233 332 105 162 114 91 175 184 171 145 126 137 120 100 63
70 94 99 49 306 318 330 147 132 88 83 126 202 157 305 92 249 94 221 103 114 108 125 152 214 85 192 150 202 173 213 160 189 155 179 187 235 186 176 169 202 185 184 274 133 221 118 77 1 357 179 292 3 2 50 27 52 139 202 174 110 191 215 318 93 203 136 255 267 307 283 268 192 237 287 209 184 195 200 162 150 150 148 147 154 162 179 34
114 143 90 321 315 326 342 74 104 117 130 177 210 144 248 126 48 167 240 159 108 125 149 215 132 235 139 185 166 167 165 180 164 188 145 232 202 202 185 157 194 221 160 138 88 143 52 136 301 351 122 278 356 97 187 200 343 32 92 84 318 101 151 129 198 173 126 234 68 290 49 238 203 220 192 202 196 174 169 152 177 162 158 160 165 163 154 144
19 64 62 316 323 340 333 95 97 95 128 198 186 183 204 99 171 270 303 154 163 112 204 156 240 126 169 195 157 163 217 171 167 193 190 196 194 297 191 225 158 182 135 103 125 160 140 110 150 270 304 90 172 197 214 162 150 96 111 188 90 36 230 100 27 122 180 170 181 200 313 271 255 219 192 206 185 179 162 165 171 173 168 178 173 170 172 133
266 85 83 329 343 324 71 86 124 186 188 353 80 147 95 167 179 18 6 53 108 316 149 148 160 153 173 113 192 156 152 146 178 179 189 201 190 210 216 184 142 156 140 59 104 189 91 136 145 151 64 223 239 260 225 170 191 176 164 187 172 127 143 154 244 31 97 114 214 135 244 274 271 181 212 210 202 177 198 160 172 169 176 177 194 198 155 108
34 105 190 339 343 359 128 147 191 71 102 137 178 155 148 121 71 148 66 349 79 116 18 100 17 120 135 157 149 159 139 166 177 180 236 184 219 178 297 133 155 148 152 180 178 218 140 129 106 164 210 164 230 307 238 260 344 191 166 224 163 156 98 113 186 236 62 351 101 156 353 272 245 209 222 244 210 198 185 180 154 168 173 188 199 202 228 141
19 113 313 314 349 53 137 107 57 117 107 234 327 39 25 61 115 209 118 327 88 80 57 62 188 113 265 132 164 145 163 181 170 199 180 201 274 200 216 152 133 160 109 71 68 205 81 99 73 339 314 309 330 314 69 192 144 1 285 89 151 198 187 172 166 176 149 145 105 359 239 254 288 263 250 250 243 239 280 153 164 162 181 200 201 197 77 67
29 10 351 304 31 24 186 179 184 185 127 17 72 109 341 153 124 105 104 249 127 103 141 154 32 346 152 130 138 170 188 154 240 187 267 196 187 56 218 168 161 164 161 203 172 199 155 245 124 120 35 345 344 349 354 348 48 211 194 202 166 69 75 131 104 66 97 215 164 131 233 276 271 309 321 294 164 173 175 204 186 164 192 196 193 183 11 46
120 5 338 315 15 45 171 347 137 127 142 151 136 138 136 40 296 164 149 154 83 133 107 164 192 144 83 158 110 95 191 159 155 226 105 196 133 20 16 149 218 171 106 304 77 154 130 172 137 153 163 169 195 196 216 213 206 187 265 168 184 153 140 136 158 137 177 264 153 167 244 251 276 325 10 159 156 186 211 225 254 206 181 182 174 113 47 63
184 129 202 3 0 37 22 334 59 129 145 150 138 203 113 106 359 332 111 84 164 95 66 129 5 85 99 116 128 155 189 357 112 184 168 184 232 359 286 349 155 158 306 134 146 139 162 153 193 178 189 200 206 202 31 91 72 185 218 165 184 176 167 111 104 113 212 191 175 231 169 180 243 293 219 182 178 183 185 218 204 198 230 237 225 193 124 99
58 95 159 146 75 17 119 317 207 131 170 166 171 159 164 141 142 37 266 107 227 144 79 44 178 136 228 131 167 170 196 149 357 95 173 141 243 231 330 133 97 23 19 90 154 92 89 179 218 201 216 220 153 159 207 148 167 191 135 186 176 157 175 152 170 215 140 99 255 230 187 179 234 242 222 190 201 221 221 198 204 205 199 196 193 100 93 96
120 278 55 321 124 187 143 220 185 151 338 139 172 128 164 134 156 150 20 0 78 30 115 349 54 12 180 173 147 149 167 152 127 180 67 18 108 338 61 2 132 297 33 123 352 135 142 195 221 161 236 183 119 169 167 161 176 174 180 165 171 180 162 186 211 214 135 190 230 208 149 219 223 212 203 198 185 193 199 197 198 183 161 141 117 118 125 143
90 96 135 326 124 355 38 131 155 164 154 170 68 157 167 168 178 174 156 100 40 225 133 159 210 213 167 160 139 148 158 147 239 237 163 154 165 124 97 49 318 12 118 107 139 177 125 230 186 169 216 173 232 145 206 159 128 141 183 180 182 169 188 198 213 208 187 217 228 152 183 215 192 207 203 207 206 190 184 193 133 179 178 149 123 137 159 171
286 117 153 22 72 78 336 128 154 156 162 194 138 229 172 181 179 133 355 136 158 251 67 121 200 165 145 125 104 144 206 176 171 169 213 134 164 115 188 183 153 358 52 158 166 264 152 251 134 137 186 239 249 57 80 112 140 184 218 192 186 188 196 204 209 216 202 246 123 170 214 248 251 216 207 218 152 79 105 179 203 193 139 164 165 168 177 186
115 110 128 119 85 158 93 134 160 158 151 192 163 205 150 187 192 162 154 177 146 160 158 182 162 104 90 107 84 68 204 181 175 183 176 165 172 209 143 242 148 154 163 122 144 140 151 225 46 97 166 268 340 159 106 79 56 110 193 190 200 199 206 216 215 192 175 212 212 159 253 253 214 204 233 213 130 161 188 201 198 222 206 167 170 179 180 186
66 270 101 97 100 321 149 19 120 136 191 191 167 168 170 193 142 142 151 336 95 158 171 151 173 120 93 132 177 177 196 161 143 114 126 95 107 111 113 146 150 154 168 157 113 139 164 136 141 138 163 245 287 107 122 100 68 306 253 216 203 204 203 204 228 210 204 200 193 182 230 235 143 193 199 207 187 199 194 199 209 223 209 180 179 178 181 177